Location: Lecco
(45.8566°N, 9.3977°E)
Time: 01:31:36
(UTC+02:00)

Courier 1B Rocket - Pass Details

Date: 28 August 2019
Orbit: 920 x 1202 km, 28.2° (Epoch: 22 October)

Event Time Altitude Azimuth Distance (km) Brightness Sun altitude
Rises 03:59:45 0° 236° (SW) 3,798 - -24.2°
Reaches altitude 10° 04:03:16 10° 219° (SW) 2,899 - -23.8°
Maximum altitude 04:07:58 19° 177° (S) 2,376 - -23.3°
Exits shadow 04:08:57 18° 167° (SSE) 2,416 6.8 -23.1°
Drops below altitude 10° 04:12:51 10° 136° (SE) 3,032 7.6 -22.7°
Sets 04:16:40 0° 119° (ESE) 4,035 8.4 -22.2°
